FW6131 Weather Reports


Display with metric or nautical units.
time (UTC)temp
F
wind
direction
speed
MPH
gust
MPH
rain 1hr
in
rain 24hr
in
rain mn
in
humidity
%
barometer
mb
20260507120039 61 44 1.0 11.0 0.00 0.00 0.00 51 1016.8
20260507114549 62 52 3.0 12.0 0.00 0.00 0.00 48 1016.8
20260507113038 61 66 6.0 14.0 0.00 0.00 0.00 50 1016.9
20260507111537 63 52 3.0 11.0 0.00 0.00 0.00 49 1016.8
20260507110042 61 23 3.0 14.0 0.00 0.00 0.00 49 1016.8
20260507104538 60 23 2.0 12.0 0.00 0.00 0.00 51 1016.8
20260507103044 61 35 4.0 15.0 0.00 0.00 0.00 52 1016.7
20260507101540 60 350 2.0 11.0 0.00 0.00 0.00 52 1016.6
20260507100039 59 360 5.0 13.0 0.00 0.00 0.00 53 1016.5
20260507094547 58 61 3.0 8.0 0.00 0.00 0.00 55 1016.4
20260507093037 57 74 5.0 11.0 0.00 0.00 0.00 58 1016.2
20260507091538 56 31 6.0 15.0 0.00 0.00 0.00 58 1016.2
20260507090037 56 11 3.0 13.0 0.00 0.00 0.00 60 1016.2
20260507084540 55 30 3.0 10.0 0.00 0.00 0.00 61 1016.2
20260507083038 54 69 2.0 10.0 0.00 0.00 0.00 67 1016.0
20260507081539 52 10 2.0 10.0 0.00 0.00 0.00 71 1016.1
20260507080041 52 55 1.0 8.0 0.00 0.00 0.00 70 1016.0
20260507074542 51 37 6.0 13.0 0.00 0.00 0.00 72 1016.0
20260507073043 50 20 5.0 12.0 0.00 0.00 0.00 75 1015.7
20260507071539 49 21 1.0 11.0 0.00 0.00 0.00 79 1015.8
20260507070045 49 17 5.0 11.0 0.00 0.00 0.00 79 1015.7
20260507064545 48 31 3.0 10.0 0.00 0.00 0.00 81 1015.6
20260507063037 48 324 1.0 6.0 0.00 0.00 0.00 82 1015.5
20260507061538 47 355 3.0 9.0 0.00 0.00 0.00 82 1015.4
20260507060039 47 355 4.0 11.0 0.00 0.00 0.00 83 1015.2
20260507054538 46 55 3.0 10.0 0.00 0.00 0.00 84 1015.0
20260507053037 45 38 3.0 8.0 0.00 0.00 0.00 85 1015.0
20260507051537 45 355 2.0 6.0 0.00 0.00 0.00 86 1015.0
20260507050041 44 355 2.0 5.0 0.00 0.00 0.00 87 1014.7
20260507044555 44 355 2.0 6.0 0.00 0.00 0.00 87 1014.5
20260507043041 44 355 2.0 8.0 0.00 0.00 0.00 87 1014.5
20260507041545 44 355 2.0 8.0 0.00 0.00 0.00 87 1014.3
20260507040043 44 355 2.0 5.0 0.00 0.00 0.00 87 1014.2
20260507034542 45 355 1.0 4.0 0.00 0.00 0.00 86 1014.0
20260507033050 46 355 2.0 6.0 0.00 0.00 0.00 85 1013.9
20260507031553 46 355 3.0 6.0 0.00 0.00 0.00 85 1013.7
20260507030100 46 355 2.0 6.0 0.00 0.00 0.00 84 1013.8
20260507024559 47 355 2.0 9.0 0.00 0.00 0.00 84 1013.6
20260507023037 47 355 2.0 9.0 0.00 0.00 0.00 84 1013.5
20260507021551 47 355 2.0 8.0 0.00 0.00 0.00 84 1013.2
20260507020053 47 355 2.0 10.0 0.00 0.00 0.00 84 1013.2
20260507014549 47 355 3.0 11.0 0.00 0.00 0.00 83 1013.1
20260507013041 47 355 4.0 10.0 0.00 0.00 0.00 83 1013.0
20260507011544 47 355 3.0 9.0 0.00 0.00 0.00 84 1013.0
20260507010043 47 355 3.0 8.0 0.00 0.00 0.00 84 1012.8
20260507004536 48 355 2.0 11.0 0.00 0.00 0.00 84 1012.8
20260507003034 48 355 3.0 6.0 0.00 0.00 0.00 84 1012.7
20260507001539 48 355 3.0 13.0 0.00 0.00 0.00 84 1012.7
20260507000039 48 355 3.0 9.0 0.00 0.00 0.00 84 1012.6
20260506234551 48 355 3.0 10.0 0.00 0.00 0.00 84 1012.8
20260506233046 49 355 3.0 10.0 0.00 0.00 0.00 83 1012.6
20260506231536 49 355 4.0 11.0 0.00 0.00 0.00 84 1012.5
20260506230035 49 355 2.0 8.0 0.00 0.00 0.00 84 1012.5
20260506224542 49 355 3.0 8.0 0.00 0.00 0.00 84 1012.4
20260506223038 49 355 2.0 8.0 0.00 0.00 0.00 84 1012.3
20260506221539 49 355 3.0 8.0 0.00 0.00 0.00 84 1012.3
20260506220037 49 355 4.0 9.0 0.00 0.00 0.00 83 1012.3
20260506214537 49 355 2.0 8.0 0.00 0.00 0.00 82 1012.1
20260506213039 49 355 2.0 6.0 0.00 0.00 0.00 82 1012.1
20260506211539 50 355 2.0 8.0 0.00 0.00 0.00 81 1011.9
20260506210038 50 355 2.0 9.0 0.00 0.00 0.00 80 1012.0
20260506204540 50 355 3.0 10.0 0.00 0.00 0.00 79 1011.9
20260506203041 50 355 3.0 8.0 0.00 0.00 0.00 78 1011.8
20260506201546 50 355 2.0 9.0 0.00 0.00 0.00 78 1011.7
20260506200040 51 355 4.0 10.0 0.00 0.00 0.00 76 1011.6
20260506194536 51 355 2.0 11.0 0.00 0.00 0.00 73 1011.6
20260506193042 51 355 3.0 11.0 0.00 0.00 0.00 70 1011.5
20260506191539 51 355 2.0 5.0 0.00 0.00 0.00 69 1011.3
20260506190041 52 355 2.0 6.0 0.00 0.00 0.00 68 1011.0
20260506184545 52 355 2.0 6.0 0.00 0.00 0.00 68 1010.8
20260506183038 53 0 3.0 8.0 0.00 0.00 0.00 66 1010.7
20260506181538 53 355 2.0 8.0 0.00 0.00 0.00 66 1010.4
20260506180038 53 355 3.0 6.0 0.00 0.00 0.00 68 1010.4
20260506174537 53 355 1.0 5.0 0.00 0.00 0.00 70 1010.3
20260506173055 54 355 1.0 5.0 0.00 0.00 0.00 70 1010.2
20260506171537 54 355 1.0 4.0 0.00 0.00 0.00 70 1010.2
20260506170042 54 355 2.0 6.0 0.00 0.00 0.00 69 1010.0
20260506164544 54 355 0.0 6.0 0.00 0.00 0.00 68 1009.9
20260506163040 55 355 2.0 6.0 0.00 0.00 0.00 66 1009.9
20260506161538 55 355 2.0 9.0 0.00 0.00 0.00 67 1009.9
20260506160038 56 355 2.0 9.0 0.00 0.00 0.00 64 1010.0
20260506154537 56 355 3.0 9.0 0.00 0.00 0.00 63 1010.0
20260506153045 57 355 3.0 9.0 0.00 0.00 0.00 62 1010.0
20260506151539 57 355 3.0 8.0 0.00 0.00 0.00 62 1010.0
20260506150042 57 42 3.0 10.0 0.00 0.00 0.00 61 1009.9
20260506144542 57 355 1.0 11.0 0.00 0.00 0.00 61 1009.9
20260506143040 57 129 2.0 9.0 0.00 0.00 0.00 59 1010.0
20260506141538 57 33 2.0 9.0 0.00 0.00 0.00 59 1010.1
20260506140041 57 41 3.0 13.0 0.00 0.00 0.00 55 1009.9
20260506134539 57 39 2.0 11.0 0.00 0.00 0.00 53 1010.0
20260506133039 57 31 3.0 12.0 0.00 0.00 0.00 52 1009.9
20260506131548 57 16 4.0 10.0 0.00 0.00 0.00 49 1009.8
20260506130053 57 20 3.0 11.0 0.00 0.00 0.00 49 1009.8
20260506124545 58 25 3.0 16.0 0.00 0.00 0.00 47 1009.7
20260506123043 58 5 4.0 13.0 0.00 0.00 0.00 47 1009.6
20260506121539 59 68 3.0 9.0 0.00 0.00 0.00 46 1009.5